Regional Weather Roundup
Issued by NWS

Home | Current Version | Previous Version | Graphics & Text | Print | Product List | Glossary On
Versions: 1 2 3 4 5 6 7 8 9 10 11 12 13 14 15 16 17 18 19 20 21 22 23 24 25 26 27 28 29 30 31 32 33 34 35 36 37 38 39 40 41 42 43 44 45 46 47 48 49 50
000
ASUS43 KBIS 202359
RWRND

NORTH DAKOTA REGIONAL WEATHER ROUNDUP
NATIONAL WEATHER SERVICE BISMARCK ND
700 PM CDT MON OCT 20 2014

NOTE: "FAIR" INDICATES FEW OR NO CLOUDS BELOW 12,000 FEET WITH NO
SIGNIFICANT WEATHER AND/OR OBSTRUCTIONS TO VISIBILITY.


NDZ001>003-009>011-017-210100-
NORTHWEST NORTH DAKOTA

CITY           SKY/WX    TMP DP  RH WIND       PRES   REMARKS
WILLISTON      CLEAR     71  40  32 SE6       29.82S
6HR MIN TEMP:  69; 6HR MAX TEMP:  78;

MINOT          CLEAR     62  37  39 SE9       29.90S
$$

NDZ018>021-031>035-040>046-210100-
SOUTHWEST NORTH DAKOTA

CITY           SKY/WX    TMP DP  RH WIND       PRES   REMARKS
BISMARCK       CLEAR     55  33  43 SE8       29.94F
6HR MIN TEMP:  55; 6HR MAX TEMP:  73; 6HR PCP: TRACE;

DICKINSON      CLEAR     60  41  49 E10       29.88S
GARRISON         N/A     60  41  49 SE8       29.91S
6HR MIN TEMP:  60; 6HR MAX TEMP:  72;

HETTINGER ARPT CLEAR     66  40  38 SE12      29.92S
$$

NDZ004>008-012>016-024-026-027-054-210100-
NORTHEAST NORTH DAKOTA

CITY           SKY/WX    TMP DP  RH WIND       PRES   REMARKS
GRAND FORKS    CLEAR     53  41  63 E6        30.03S
DEVILS LAKE    CLEAR     55  39  54 SE7       29.97S
$$

NDZ022-023-025-028>030-036>039-047>053-210100-
SOUTHEAST NORTH DAKOTA

CITY           SKY/WX    TMP DP  RH WIND       PRES   REMARKS
FARGO          CLEAR     54  41  61 CALM      30.03R
6HR MIN TEMP:  54; 6HR MAX TEMP:  65;

$$



USA.gov is the U.S. government's official web portal to all federal, state and local government web resources and services.